TimeEST,TemperatureF,Dew PointF,Humidity,Sea Level PressureIn,VisibilityMPH,Wind Direction,Wind SpeedMPH,Gust SpeedMPH,PrecipitationIn,Events,Conditions,WindDirDegrees,DateUTC
12:53 AM,21.9,18.0,85,30.12,10.0,Calm,Calm,-,N/A,,Clear,0,2013-03-04 05:53:00
1:53 AM,21.0,18.0,88,30.13,10.0,Calm,Calm,-,N/A,,Clear,0,2013-03-04 06:53:00
2:53 AM,19.9,16.0,85,30.14,10.0,Calm,Calm,-,N/A,,Clear,0,2013-03-04 07:53:00
3:53 AM,18.0,16.0,92,30.14,10.0,Calm,Calm,-,N/A,,Clear,0,2013-03-04 08:53:00
4:53 AM,19.0,15.1,85,30.16,10.0,Calm,Calm,-,N/A,,Clear,0,2013-03-04 09:53:00
5:53 AM,18.0,14.0,84,30.18,10.0,Calm,Calm,-,N/A,,Clear,0,2013-03-04 10:53:00
6:53 AM,17.1,14.0,88,30.19,10.0,Calm,Calm,-,N/A,,Clear,0,2013-03-04 11:53:00
7:53 AM,19.0,17.1,92,30.19,10.0,Calm,Calm,-,N/A,,Clear,0,2013-03-04 12:53:00
8:53 AM,25.0,21.0,85,30.19,10.0,Variable,3.5,-,N/A,,Clear,0,2013-03-04 13:53:00
9:53 AM,30.0,23.0,75,30.19,10.0,South,3.5,-,N/A,,Clear,170,2013-03-04 14:53:00
10:53 AM,35.1,21.0,57,30.17,10.0,East,4.6,-,N/A,,Clear,100,2013-03-04 15:53:00
11:53 AM,37.9,18.0,45,30.16,10.0,Variable,6.9,-,N/A,,Clear,0,2013-03-04 16:53:00
12:53 PM,39.9,16.0,38,30.12,10.0,Calm,Calm,-,N/A,,Clear,0,2013-03-04 17:53:00
1:53 PM,45.0,18.0,34,30.08,10.0,Calm,Calm,-,N/A,,Clear,0,2013-03-04 18:53:00
2:53 PM,46.9,17.1,30,30.06,10.0,South,6.9,-,N/A,,Mostly Cloudy,180,2013-03-04 19:53:00
3:53 PM,45.0,17.1,33,30.05,10.0,Calm,Calm,-,N/A,,Overcast,0,2013-03-04 20:53:00
4:53 PM,46.0,18.0,33,30.04,10.0,SSE,4.6,-,N/A,,Overcast,150,2013-03-04 21:53:00
5:53 PM,45.0,21.0,39,30.03,10.0,ESE,4.6,-,0.00,,Overcast,110,2013-03-04 22:53:00
6:53 PM,43.0,21.0,42,30.02,10.0,ESE,4.6,-,N/A,,Clear,120,2013-03-04 23:53:00
7:53 PM,42.1,21.0,43,30.00,10.0,East,3.5,-,N/A,,Clear,100,2013-03-05 00:53:00
8:53 PM,43.0,21.0,42,30.00,10.0,Calm,Calm,-,N/A,,Overcast,0,2013-03-05 01:53:00
9:53 PM,43.0,21.9,43,30.02,10.0,Calm,Calm,-,N/A,,Overcast,0,2013-03-05 02:53:00
10:53 PM,39.9,27.0,60,30.00,10.0,ENE,5.8,-,N/A,,Overcast,70,2013-03-05 03:53:00
11:53 PM,39.9,25.0,55,30.01,10.0,Calm,Calm,-,N/A,,Overcast,0,2013-03-05 04:53:00